This demonstration page uses our WeatherBlox Daily Observations layout. Learn more.

39.92423, -83.80882

Hourly Observations for May 4, 2017

Temp ( °F °C ) Dew Point ( °F °C ) Humidity (%) Winds ( mph kmh ) Pressure ( in mb ) Visibility ( mi km ) Precip ( " mm )
12:56 am 00:56 Cloudy 49 9.4 44 6.7 83 83 E 12 19 30.08 1019 10 16.0934 0 0.0254
1:56 am 01:56 Cloudy with Light Rain 50 10 43 6.1 77 77 E 9 15 30.05 1018 10 16.0934 0 0.0254
2:56 am 02:56 Cloudy 50 10 43 6.1 77 77 ENE 9 15 30.02 1017 10 16.0934 0 0.0254
3:56 am 03:56 Partly Cloudy 49 9.4 43 6.1 80 80 ENE 12 19 29.96 1015 10 16.0934 0 0.0254
4:56 am 04:56 Clear 49 9.4 42 5.6 77 77 ENE 16 26 29.92 1013 10 16.0934 0 0
5:56 am 05:56 Mostly Cloudy 49 9.4 42 5.6 77 77 ENE 16 26 29.89 1012 10 16.0934 0 0
6:56 am 06:56 Cloudy 49 9.4 41 5 74 74 ENE 15 24 29.87 1011 10 16.0934 0 0
7:56 am 07:56 Cloudy with Light Rain 48 8.9 42 5.6 80 80 ENE 14 22 29.87 1012 10 16.0934 0 0.0254
8:56 am 08:56 Cloudy with Rain 48 8.9 43 6.1 83 83 NE 10 17 29.9 1012 10 16.0934 0.01 0.254
9:56 am 09:56 Cloudy with Light Rain 47 8.3 44 6.7 90 90 NE 9 15 29.9 1012 9 14.48406 0.08 2.032
10:56 am 10:56 Cloudy with Light Rain 47 8.3 45 7.2 93 93 ENE 16 26 29.87 1011 10 16.0934 0.05 1.27
11:56 am 11:56 Cloudy with Light Rain 48 8.9 46 7.8 93 93 ENE 18 30 29.83 1010 8 12.87472 0.03 0.762
12:56 pm 12:56 Cloudy with Light Rain 49 9.4 47 8.3 93 93 E 15 24 29.8 1009 10 16.0934 0 0.0254
1:56 pm 13:56 Cloudy with Light Rain 50 10 49 9.4 96 96 E 14 22 29.78 1008 10 16.0934 0 0.0254
2:56 pm 14:56 Cloudy 54 12.2 51 10.6 90 90 ESE 15 24 29.74 1007 10 16.0934 0 0.0254
3:56 pm 15:56 Cloudy 55 12.8 53 11.7 93 93 ESE 12 19 29.73 1007 10 16.0934 0 0
4:56 pm 16:56 Cloudy 57 13.9 54 12.2 90 90 SE 9 15 29.72 1006 10 16.0934 0 0
5:56 pm 17:56 Cloudy with Light Rain 58 14.4 55 12.8 90 90 SE 9 15 29.72 1006 10 16.0934 0.01 0.254
6:56 pm 18:56 Cloudy with Light Rain 58 14.4 56 13.3 93 93 SE 5 7 29.7 1006 10 16.0934 0.02 0.508
7:56 pm 19:56 Cloudy with Light Rain 58 14.4 55 12.8 90 90 ESE 5 7 29.7 1006 10 16.0934 0 0.0254
8:56 pm 20:56 Cloudy with Light Rain 56 13.3 54 12.2 93 93 NE 6 9 29.68 1005 10 16.0934 0.01 0.254
9:56 pm 21:56 Cloudy 55 12.8 54 12.2 96 96 NNE 7 11 29.69 1006 10 16.0934 0 0.0254
10:56 pm 22:56 Cloudy with Light Rain 56 13.3 54 12.2 93 93 NNE 6 9 29.69 1006 10 16.0934 0.06 1.524
11:15 pm 23:15 Cloudy with Rain 55 13 54 12 94 94 NE 7 11 29.68 1005 7 11.26538 0.02 0.508
11:56 pm 23:56 Cloudy with Light Rain 55 12.8 54 12.2 96 96 NE 10 17 29.67 1005 4 6.43736 0.07 1.778

Powered by AerisWeather